Temperature
24 24 23 23 22 22 21 21 21 20 20 20 20 19 19 19 19 19 19 19 19 19 18 18 18 18 18 18 18 18 18 18 18 18 17 17 17 17 17 17 17 17 17
24 24 23 23 23 22 22 21 21 20 20 20 20 20 19 19 19 19 19 19 19 19 19 18 18 18 18 18 18 18 18 18 18 18 17 17 17 17 17 17 17 17 16
24 24 24 23 23 23 22 22 21 21 20 20 20 19 19 19 19 19 19 19 19 19 19 19 19 18 18 18 18 18 18 18 18 18 17 17 17 16 16 16 16 16 16
25 25 24 24 23 23 23 22 21 21 21 20 20 20 20 19 19 19 19 19 19 19 19 19 18 18 18 18 18 18 18 18 17 17 17 17 17 16 16 16 16 16 16
25 25 25 24 24 23 23 22 22 21 21 20 20 20 20 19 19 19 19 19 19 18 18 18 18 18 18 18 18 18 17 17 17 17 17 17 17 17 16 15 15 15 15
26 25 25 25 24 24 23 22 22 22 21 21 20 20 20 20 19 19 19 19 19 18 18 18 18 18 18 18 18 18 17 17 17 17 17 17 17 17 16 16 15 15 15
26 26 25 25 24 24 23 23 22 22 21 21 21 20 20 20 20 19 19 19 19 19 18 18 18 18 18 18 17 17 17 17 17 17 17 17 17 17 16 16 15 15 14
26 26 26 25 25 24 24 23 23 22 22 21 21 21 20 20 20 20 19 19 19 19 18 18 18 18 18 18 17 17 17 17 17 17 17 17 17 16 16 16 16 15 14
26 26 26 26 25 25 24 24 23 23 22 22 21 21 20 20 20 20 19 19 19 19 18 18 18 18 18 17 17 17 17 17 17 17 16 16 16 16 16 16 16 15 14
26 26 26 26 25 25 25 24 24 23 23 22 22 21 21 20 20 20 19 19 19 19 19 18 18 18 18 17 17 17 17 17 17 16 16 16 16 16 16 16 16 15 15
26 26 26 26 25 25 24 24 23 23 23 22 22 21 21 20 20 20 20 19 19 19 18 18 18 18 18 17 17 17 17 17 17 16 16 16 16 16 16 16 15 15 15
26 26 26 25 25 25 24 24 24 23 23 22 22 21 21 20 20 20 20 19 19 19 18 18 18 18 17 17 17 16 16 16 16 16 16 16 16 15 15 15 15 15 15
26 26 25 25 25 25 24 24 24 23 23 22 22 21 21 20 20 20 19 19 19 19 18 18 18 17 17 17 16 16 16 16 16 16 16 15 15 15 15 15 15 15 14
26 25 25 25 25 25 24 24 24 23 23 22 22 21 21 20 20 20 19 19 19 19 18 18 18 17 17 17 16 16 16 16 16 15 15 15 15 15 15 15 15 14 14
25 25 25 25 25 25 24 24 23 23 23 22 22 21 21 20 20 20 19 19 19 19 18 18 17 17 17 16 16 16 16 15 15 15 15 15 15 15 15 15 14 14 14
24 25 25 25 24 24 24 24 23 23 23 22 22 21 21 20 20 19 19 19 19 18 18 18 17 17 17 16 16 16 15 15 15 15 15 15 15 15 14 14 14 14 14
24 24 24 24 24 24 24 24 24 23 22 22 22 21 21 20 20 19 19 19 18 18 18 17 17 17 17 16 16 15 15 15 15 15 15 15 15 15 15 14 14 14 14
24 24 24 24 24 24 24 23 23 22 22 22 21 21 20 20 19 19 19 19 18 18 18 17 17 17 17 16 16 15 15 15 15 15 14 14 14 14 14 14 14 14 13
24 24 24 24 24 24 23 23 22 22 21 21 21 20 20 20 19 19 19 18 18 18 17 17 17 17 16 16 15 15 15 15 15 14 14 14 14 14 14 13 13 13 13
24 24 24 24 23 23 23 23 22 22 21 21 21 20 20 19 19 19 19 18 18 18 17 17 17 16 16 16 15 15 15 15 14 14 14 14 14 14 13 13 13 13 13
23 23 23 23 23 23 22 22 22 22 21 21 20 20 20 19 19 19 18 18 18 17 17 17 16 16 16 16 15 15 15 15 14 14 14 14 13 13 13 13 13 13 12
22 22 22 22 22 22 22 21 21 21 21 20 20 20 19 19 19 18 18 18 17 17 17 16 16 16 16 16 15 15 15 14 14 14 14 14 13 13 13 13 13 12 12
22 21 21 21 21 21 21 21 21 20 20 20 20 19 19 19 18 18 18 17 17 17 16 16 16 16 16 15 15 15 15 14 14 14 14 13 13 13 13 13 12 12 12
21 21 21 21 20 20 20 20 20 20 19 19 19 19 18 18 18 17 17 17 17 16 16 16 16 16 16 15 15 15 15 14 14 14 13 13 13 13 12 12 12 12 12
20 20 20 20 19 19 19 19 19 19 19 18 18 18 18 18 17 17 17 17 17 17 17 16 16 16 16 16 16 15 15 15 14 14 13 13 13 13 12 12 12 12 12
19 19 19 19 19 19 19 19 18 18 18 18 17 17 17 17 17 16 16 16 16 16 16 16 15 16 16 15 15 15 14 14 14 13 13 13 13 13 13 12 12 12 12
Wind_Speed
11 11 12 12 11 9 9 8 7 6 5 3 3 2 1 1 1 2 4 5 4 4 3 2 2 2 2 2 2 1 1 1 2 2 2 2 2 2 1 2 2 3 4
10 11 11 11 11 10 9 8 8 7 6 4 3 3 2 2 2 1 2 4 4 4 3 3 2 2 2 1 1 2 2 1 2 3 2 1 2 2 1 1 2 2 2
16 14 13 12 12 11 11 10 8 7 7 6 3 2 2 1 1 1 1 2 3 3 3 3 2 2 2 2 1 2 3 2 1 2 3 3 2 0 2 2 2 2 2
14 14 14 13 13 13 11 9 9 8 7 6 5 5 4 3 3 2 2 2 2 3 3 2 2 2 2 2 2 2 2 3 2 1 1 2 4 3 1 1 2 2 2
16 16 16 15 14 13 11 9 9 7 7 7 7 6 4 3 2 2 2 1 1 1 2 2 2 2 2 2 2 2 2 2 2 2 1 1 1 2 3 2 0 2 2
15 15 14 12 11 11 11 10 9 8 7 7 7 7 6 5 4 3 3 2 1 0 1 2 2 2 2 2 2 2 2 2 1 2 2 2 2 2 3 3 2 1 1
15 15 14 14 13 13 12 11 10 9 8 8 7 7 7 6 6 5 4 4 2 1 1 1 1 1 2 2 2 2 2 1 1 1 2 2 2 3 3 4 2 1 1
13 15 15 15 15 15 14 13 12 10 9 9 8 7 6 5 4 5 5 4 3 3 3 2 2 2 2 2 2 2 1 1 0 0 1 1 1 2 3 4 4 3 1
12 13 13 14 14 15 15 14 13 10 10 10 8 7 7 6 6 5 4 4 3 3 3 3 2 2 2 2 2 1 0 1 1 1 1 0 0 1 2 4 5 5 3
9 9 9 11 13 13 13 13 13 12 10 10 9 8 7 7 6 5 5 5 4 3 4 3 2 2 2 2 2 1 0 1 0 1 1 1 0 1 2 3 3 3 4
11 10 10 10 10 11 11 12 11 10 9 9 8 7 7 7 6 6 6 5 4 4 4 3 3 3 2 2 2 1 1 2 1 1 2 1 1 1 1 2 3 3 4
9 9 9 9 10 10 11 11 11 11 10 9 8 7 7 7 7 6 6 5 5 4 4 4 3 3 2 2 2 1 2 2 2 1 2 1 2 2 1 2 3 3 3
8 7 8 9 10 10 10 10 11 11 10 9 9 8 8 8 7 7 6 5 5 4 4 4 4 3 3 2 2 2 2 2 2 2 2 2 3 2 2 3 3 3 4
7 8 7 7 8 9 9 9 10 10 10 9 9 9 9 9 8 7 7 6 6 5 5 4 4 3 3 3 2 2 3 2 2 2 2 2 2 2 3 3 4 5 6
8 10 9 7 7 8 8 8 9 9 10 10 10 9 8 8 8 7 7 7 6 6 5 5 4 4 3 3 3 2 3 3 3 2 1 1 3 4 3 4 5 6 6
8 9 9 9 9 10 10 9 9 9 9 10 10 9 8 8 8 8 7 7 6 5 5 5 5 4 3 4 5 3 2 3 3 3 1 1 2 3 5 6 8 9 9
6 7 8 9 8 8 9 9 9 9 9 9 9 9 9 9 8 9 8 8 7 6 6 5 5 4 4 5 6 5 4 3 3 3 3 3 3 4 4 5 6 5 7
6 5 6 7 7 6 6 7 8 8 9 9 9 8 9 8 8 8 8 7 6 7 6 6 6 5 5 6 7 6 4 3 2 3 4 4 3 4 6 5 4 3 3
6 5 5 5 6 6 7 8 8 8 8 9 9 9 9 9 9 9 8 7 6 6 5 6 6 5 4 6 7 6 3 2 2 1 3 4 4 5 8 6 5 3 1
4 3 3 3 4 5 7 8 8 8 8 9 9 9 9 9 9 9 8 6 6 6 7 6 6 6 5 6 8 7 3 3 2 1 1 4 5 7 8 6 6 5 3
4 4 4 3 3 4 6 6 7 8 9 8 8 8 9 9 9 7 6 6 6 6 6 6 5 5 6 7 9 8 5 4 4 3 2 2 6 7 8 7 5 7 5
4 4 4 2 2 3 6 5 6 7 7 7 8 8 8 8 7 7 6 6 7 7 6 5 4 4 4 6 8 11 9 7 5 5 4 4 7 8 8 6 5 6 6
3 3 4 3 2 2 4 4 4 4 6 7 7 7 7 6 7 7 7 6 7 6 6 5 5 4 4 5 9 10 11 10 6 5 6 7 7 7 5 6 7 6 5
3 3 4 3 2 1 1 2 2 3 6 7 7 6 7 6 5 5 6 6 7 7 6 6 6 5 4 5 5 6 6 8 6 4 5 6 6 5 4 4 4 4 5
2 3 3 2 0 1 1 1 1 3 4 6 5 5 6 6 5 5 5 7 7 8 8 7 7 7 7 9 10 9 7 7 7 5 2 2 2 3 3 3 3 3 3
2 3 2 1 0 0 1 1 1 2 4 5 5 4 5 5 4 5 3 3 4 7 9 9 8 7 9 10 12 13 12 12 11 7 4 5 6 7 7 6 6 5 6
Wind_Direction
176 168 166 164 160 161 161 160 159 167 152 142 145 147 173 186 178 190 187 173 170 164 155 161 155 148 158 190 181 162 144 146 127 98 68 35 45 96 126 156 149 161 174
171 171 169 169 169 170 169 165 166 171 169 170 170 170 168 185 195 196 184 186 176 171 167 159 169 160 162 167 164 147 154 192 158 139 125 83 13 29 50 99 125 134 124
179 178 176 176 172 175 177 176 173 171 174 170 151 128 85 55 60 163 197 202 177 181 175 169 166 171 165 183 198 168 165 187 221 170 153 159 194 233 14 44 77 95 106
183 180 179 179 180 183 179 175 173 172 172 164 160 160 167 184 207 200 198 206 181 175 169 160 157 164 163 176 199 170 172 162 194 240 209 175 159 162 157 21 38 69 85
185 185 185 184 184 180 176 175 171 172 172 169 170 168 178 191 188 167 163 182 192 178 160 152 151 159 158 165 163 143 153 161 179 196 194 148 131 141 158 192 174 56 50
188 189 188 180 179 177 175 173 172 177 176 175 177 178 183 181 170 176 174 174 174 181 158 135 151 166 158 159 166 163 155 164 171 195 187 177 175 175 163 178 176 146 56
186 187 185 183 182 179 178 176 175 181 183 181 185 187 185 180 181 184 180 170 169 191 203 167 165 164 172 165 148 142 147 164 188 211 205 195 202 176 158 152 157 147 144
186 190 190 187 185 182 179 177 180 185 186 185 189 189 183 178 182 183 173 175 183 192 185 158 143 140 139 140 129 128 158 147 156 169 174 200 220 178 163 159 152 144 139
182 190 191 188 184 182 182 180 181 184 186 186 181 183 182 178 179 178 169 169 176 176 159 146 136 132 125 129 123 111 142 125 129 128 106 107 267 175 173 162 162 159 166
174 183 190 188 185 184 181 178 180 185 186 185 183 186 185 183 177 168 169 171 175 159 144 137 128 114 100 105 111 107 55 92 57 113 78 46 3 135 147 158 163 158 155
175 179 186 178 176 172 172 175 178 178 180 184 186 183 181 179 171 168 166 164 163 150 144 135 125 119 107 101 106 127 101 98 65 56 76 54 76 88 131 143 139 132 129
170 170 168 162 163 166 170 175 179 180 183 183 180 178 173 165 163 163 162 156 151 147 142 136 125 122 111 105 113 114 103 103 95 69 67 44 74 70 96 130 129 130 127
152 150 154 164 171 170 169 174 182 185 182 175 172 171 170 169 169 165 159 152 147 143 134 129 130 125 119 114 125 137 135 123 117 106 96 85 90 84 93 116 121 121 118
148 147 155 167 172 169 170 174 183 183 178 173 173 177 178 175 172 165 155 154 152 148 145 144 142 136 126 123 121 120 118 106 104 105 110 111 126 137 131 127 127 122 116
153 157 159 167 175 174 175 178 183 182 177 173 178 184 178 171 167 162 159 158 156 157 154 147 143 146 142 146 140 136 131 125 110 91 83 111 138 147 148 146 144 137 132
158 161 161 168 181 183 182 182 185 183 175 175 178 176 170 169 169 165 161 159 159 157 153 155 156 157 164 156 151 140 131 141 142 140 131 123 112 127 132 136 143 150 152
160 161 170 175 183 185 184 184 183 176 178 180 178 173 170 171 171 169 164 167 168 163 161 160 158 167 178 166 161 154 142 143 156 164 166 161 143 135 131 129 123 133 153
152 159 173 176 182 184 181 177 171 172 177 178 177 174 171 172 171 169 172 173 170 171 173 172 172 175 185 172 166 157 141 137 140 162 170 160 154 154 146 137 121 114 128
153 161 172 174 171 167 170 164 168 172 176 181 181 178 174 172 175 178 181 180 174 175 175 177 179 182 193 181 172 155 141 146 147 168 167 158 157 165 152 140 135 126 116
135 134 132 133 153 172 162 161 169 172 184 189 185 179 175 176 181 185 183 179 175 178 176 182 186 186 193 191 179 165 156 165 178 173 171 168 165 167 162 154 154 158 177
119 118 112 129 166 164 153 161 174 188 193 185 177 178 178 182 183 181 178 175 176 175 177 184 196 197 197 196 189 181 178 185 186 189 206 209 183 174 176 170 173 186 178
100 106 106 96 106 141 150 165 192 199 182 172 174 179 179 181 179 176 176 177 178 181 186 190 204 214 208 201 200 193 196 194 194 203 204 204 193 189 191 189 191 179 162
99 100 111 96 70 102 145 172 199 179 167 169 174 175 176 178 174 175 178 181 181 186 193 196 207 218 218 213 206 199 200 199 200 208 202 199 198 195 202 210 191 170 161
93 88 89 80 37 19 76 173 188 172 165 170 174 174 176 179 180 183 183 187 191 194 198 205 213 215 215 215 207 204 206 206 209 215 217 206 201 197 205 204 198 189 183
112 106 116 130 164 357 14 354 160 154 167 170 172 176 181 184 187 191 194 197 202 201 200 206 205 202 216 220 207 197 201 201 199 175 158 172 188 207 216 216 216 206 196
123 113 110 113 336 348 351 336 174 154 164 168 176 179 181 182 183 185 195 217 214 220 219 212 205 215 217 208 203 204 201 193 178 163 191 208 213 214 212 211 214 211 209
Height
1529 1531 1533 1535 1536 1538 1539 1540 1541 1543 1543 1544 1545 1545 1546 1547 1547 1548 1548 1549 1549 1549 1549 1549 1549 1549 1549 1549 1549 1549 1549 1549 1550 1550 1550 1550 1550 1550 1549 1550 1549 1550 1550
1528 1530 1532 1533 1534 1536 1537 1539 1540 1541 1542 1543 1544 1545 1546 1546 1547 1547 1547 1548 1548 1548 1548 1547 1548 1548 1548 1548 1547 1547 1547 1547 1548 1548 1548 1548 1549 1548 1548 1548 1548 1548 1548
1524 1527 1529 1531 1533 1534 1536 1537 1538 1540 1541 1542 1543 1544 1545 1545 1546 1546 1546 1546 1547 1547 1547 1546 1546 1546 1546 1545 1545 1545 1545 1545 1545 1546 1546 1546 1546 1547 1547 1546 1546 1546 1546
1521 1524 1526 1528 1530 1532 1534 1536 1537 1538 1540 1541 1542 1542 1543 1544 1544 1545 1545 1546 1546 1546 1546 1545 1545 1544 1544 1544 1543 1543 1543 1543 1542 1543 1544 1544 1544 1544 1544 1545 1545 1545 1544
1518 1520 1523 1525 1528 1530 1532 1534 1536 1537 1538 1539 1540 1541 1542 1543 1544 1544 1544 1545 1545 1545 1545 1544 1543 1543 1542 1542 1541 1541 1541 1540 1540 1540 1540 1541 1541 1542 1542 1542 1543 1543 1543
1515 1518 1521 1524 1526 1528 1531 1532 1534 1535 1537 1538 1539 1540 1541 1542 1542 1543 1543 1544 1544 1544 1543 1543 1542 1541 1541 1540 1540 1539 1539 1538 1538 1538 1538 1538 1538 1539 1539 1539 1540 1540 1541
1512 1515 1518 1520 1523 1525 1528 1530 1532 1533 1535 1536 1537 1538 1539 1540 1541 1541 1542 1542 1542 1542 1542 1542 1541 1540 1540 1539 1538 1538 1537 1537 1536 1536 1536 1536 1536 1536 1537 1537 1537 1538 1539
1508 1512 1514 1517 1519 1522 1525 1528 1529 1531 1532 1533 1535 1536 1537 1538 1539 1540 1541 1541 1541 1541 1541 1541 1540 1539 1538 1538 1537 1536 1535 1535 1534 1534 1534 1534 1534 1534 1534 1534 1535 1536 1537
1505 1509 1511 1515 1517 1520 1522 1524 1527 1529 1530 1531 1532 1534 1536 1537 1538 1539 1540 1540 1540 1540 1540 1540 1539 1538 1537 1536 1535 1534 1534 1533 1533 1532 1532 1532 1532 1532 1532 1532 1533 1534 1534
1503 1506 1509 1512 1515 1517 1520 1523 1525 1527 1528 1530 1531 1532 1534 1535 1537 1538 1538 1538 1539 1539 1539 1538 1538 1537 1536 1535 1534 1533 1532 1532 1531 1531 1530 1530 1530 1530 1530 1530 1531 1532 1532
1500 1504 1506 1509 1512 1515 1518 1521 1523 1525 1527 1528 1530 1531 1532 1534 1535 1536 1536 1537 1537 1537 1537 1537 1536 1535 1534 1533 1533 1532 1531 1530 1530 1529 1529 1528 1528 1528 1528 1529 1529 1530 1531
1498 1501 1504 1507 1509 1512 1515 1518 1521 1523 1525 1527 1528 1530 1531 1532 1533 1534 1535 1535 1536 1536 1536 1536 1535 1534 1533 1532 1531 1530 1530 1529 1528 1528 1527 1527 1527 1527 1527 1528 1528 1528 1529
1497 1500 1503 1505 1508 1510 1513 1516 1519 1521 1523 1525 1526 1528 1529 1530 1531 1532 1533 1533 1534 1534 1534 1534 1533 1533 1532 1531 1530 1529 1528 1527 1527 1526 1526 1526 1526 1526 1526 1527 1527 1527 1528
1495 1498 1502 1505 1507 1509 1511 1514 1516 1519 1521 1522 1524 1526 1527 1528 1529 1530 1531 1532 1532 1532 1532 1532 1532 1531 1530 1529 1529 1528 1527 1526 1526 1525 1525 1525 1525 1525 1525 1526 1526 1526 1527
1496 1498 1500 1503 1505 1507 1509 1512 1514 1516 1518 1519 1521 1523 1524 1526 1527 1528 1529 1529 1530 1530 1530 1530 1530 1529 1529 1528 1528 1527 1526 1526 1525 1524 1524 1524 1524 1524 1525 1525 1525 1526 1526
1494 1496 1498 1501 1503 1505 1507 1509 1511 1513 1515 1516 1518 1521 1522 1523 1524 1525 1526 1527 1528 1528 1528 1528 1528 1527 1527 1527 1526 1526 1526 1525 1524 1524 1523 1523 1523 1523 1524 1524 1525 1525 1526
1493 1495 1497 1499 1502 1503 1505 1507 1508 1510 1512 1514 1515 1517 1519 1520 1521 1522 1523 1524 1525 1525 1525 1525 1526 1526 1526 1525 1525 1525 1525 1524 1523 1522 1522 1522 1522 1523 1523 1524 1524 1525 1525
1491 1493 1496 1498 1501 1502 1504 1506 1507 1508 1509 1511 1513 1515 1516 1517 1518 1520 1520 1521 1522 1522 1522 1522 1523 1523 1523 1523 1523 1523 1523 1523 1523 1522 1522 1521 1522 1522 1522 1523 1523 1524 1524
1490 1492 1494 1496 1498 1500 1502 1504 1505 1506 1507 1508 1510 1511 1513 1514 1515 1516 1517 1518 1518 1519 1519 1520 1520 1520 1521 1521 1522 1522 1522 1522 1521 1521 1521 1521 1521 1521 1522 1522 1522 1523 1523
1489 1491 1493 1495 1496 1498 1499 1501 1501 1503 1504 1505 1506 1508 1509 1511 1512 1513 1513 1515 1515 1516 1516 1516 1517 1518 1518 1519 1520 1520 1520 1520 1520 1520 1520 1520 1520 1521 1521 1521 1521 1522 1522
1489 1490 1491 1492 1493 1495 1496 1497 1498 1499 1500 1502 1503 1505 1506 1507 1508 1509 1510 1511 1512 1513 1513 1514 1514 1514 1515 1516 1516 1517 1518 1518 1518 1518 1518 1519 1519 1519 1520 1520 1520 1521 1521
1487 1488 1489 1490 1491 1492 1493 1493 1494 1496 1497 1498 1499 1500 1502 1504 1505 1506 1507 1508 1509 1510 1510 1510 1511 1511 1512 1512 1513 1514 1514 1515 1515 1515 1516 1517 1517 1517 1518 1518 1519 1519 1520
1485 1486 1487 1488 1489 1490 1490 1491 1492 1493 1494 1495 1495 1497 1498 1499 1501 1502 1503 1504 1505 1505 1506 1507 1507 1508 1508 1509 1510 1510 1511 1512 1512 1513 1513 1514 1515 1515 1516 1516 1517 1517 1517
1484 1485 1486 1486 1486 1487 1488 1489 1490 1490 1490 1491 1491 1493 1494 1495 1497 1498 1499 1500 1501 1501 1502 1502 1503 1504 1505 1505 1506 1506 1507 1508 1509 1510 1510 1511 1511 1512 1512 1513 1514 1514 1515
1483 1484 1484 1484 1485 1485 1486 1486 1487 1487 1486 1487 1488 1489 1490 1491 1493 1494 1495 1496 1497 1497 1498 1498 1499 1499 1500 1501 1502 1502 1503 1504 1505 1505 1506 1506 1507 1507 1508 1509 1509 1510 1511
1481 1481 1482 1482 1482 1483 1483 1484 1484 1484 1484 1484 1485 1486 1487 1488 1489 1490 1491 1492 1494 1494 1495 1496 1496 1496 1496 1497 1497 1498 1498 1499 1500 1500 1500 1501 1501 1502 1502 1503 1504 1505 1506